{"data":{"norad_id":51147,"epoch":"2026-05-25T03:11:54.329280Z","epoch_age_seconds":77594,"freshness":"FRESH","line1":"1 51147U 22005AV  26145.13326770  .00032424  00000+0  11080-2 0  9990","line2":"2 51147  53.1891 303.3318 0002098 168.3847 191.7202 15.30025176240451","mean_motion":15.30025176,"eccentricity":0.0002098,"inclination_deg":53.1891,"raan_deg":303.3318,"arg_perigee_deg":168.3847,"mean_anomaly_deg":191.7202,"bstar":0.001108,"rev_number":24045,"period_min":94.116098387652,"perigee_km":474.29916928512,"apogee_km":477.17505486254,"semimajor_km":6853.8741120738,"source":"CELESTRAK","updated_at":"2026-05-25T13:38:16.915794Z"}}